EHI
0 0 0 0 1 1 1 0 0 1 3 4 4 4 4 5 8 10 11 10 10 11 13 14 15 13 10 8 9 10 10 10 10 10 10 12 14 16 15 15 16 15 14 14
0 0 0 0 1 2 2 1 1 2 3 4 4 4 4 4 6 8 8 8 8 10 11 12 12 11 9 8 10 13 13 11 9 9 10 11 13 15 14 14 15 14 14 13
0 0 0 0 1 2 2 2 2 3 3 4 4 4 4 4 5 6 8 8 8 9 9 10 10 8 8 9 11 14 14 11 9 9 9 9 11 12 13 14 15 15 14 14
0 0 0 0 1 1 1 2 2 2 2 3 2 3 5 6 7 9 10 10 11 11 12 12 10 9 9 10 11 11 11 11 10 8 7 8 10 11 13 14 15 15 16 15
0 0 0 0 0 0 1 1 1 1 2 3 2 2 6 10 12 13 12 12 13 14 14 14 12 11 11 10 10 8 8 9 9 7 7 8 10 11 13 15 16 16 16 16
0 0 0 0 0 0 0 1 1 2 3 4 4 5 8 12 13 14 14 13 13 13 14 14 12 11 11 10 9 7 6 7 7 7 8 9 10 11 13 14 15 15 15 15
0 0 0 0 0 1 1 1 2 4 4 5 7 9 12 12 11 11 12 12 11 11 13 13 11 10 10 11 10 8 5 5 6 7 7 9 10 11 12 13 14 13 13 13
0 0 0 1 2 3 4 3 3 5 6 7 9 11 12 11 9 8 9 9 9 10 11 11 10 9 10 10 10 9 6 5 6 7 7 8 10 12 13 13 12 11 11 11
0 0 0 1 2 3 4 3 4 5 8 9 10 11 10 9 8 7 6 6 7 7 8 8 9 9 9 9 8 7 5 5 6 7 8 9 10 11 12 12 11 11 10 10
0 0 1 1 1 2 3 4 4 6 8 10 11 11 10 9 8 7 6 5 4 5 6 7 8 9 9 8 6 5 5 5 7 8 8 9 9 9 9 9 9 10 10 10
1 1 1 1 1 1 2 4 4 4 6 7 8 8 8 7 7 7 6 4 3 5 6 8 9 9 9 9 7 6 6 6 7 7 7 6 5 5 5 5 6 7 8 9
1 1 0 1 1 0 1 3 2 2 2 3 4 4 4 4 5 7 6 4 2 3 5 7 9 9 9 10 10 9 7 5 5 5 4 2 1 1 1 1 2 3 4 5
1 0 0 0 0 0 1 1 1 0 0 2 2 1 1 1 3 6 6 4 2 2 4 6 7 7 8 9 10 9 6 3 2 1 1 0 0 0 0 0 1 1 1 1
1 0 0 0 0 0 0 0 0 0 0 1 1 1 0 0 2 5 5 4 4 4 4 5 6 6 6 7 8 8 5 2 0 0 0 0 0 0 0 0 1 1 0 0
0 0 0 0 0 0 0 0 0 0 0 0 0 0 0 0 1 4 5 5 5 5 4 4 5 5 6 6 7 6 4 1 0 0 0 1 1 1 1 1 1 1 0 0
0 0 0 0 0 0 0 0 0 0 0 0 0 0 0 0 1 2 4 4 4 4 4 3 3 3 5 6 5 5 4 2 0 0 0 1 2 2 2 1 1 1 1 1
0 0 0 0 0 0 0 0 0 0 0 0 0 1 1 2 1 1 1 2 2 2 3 3 3 2 3 4 5 4 3 2 1 0 0 1 1 1 1 1 1 2 2 2
0 0 0 0 0 0 0 0 0 0 0 0 1 2 2 2 1 0 0 0 1 1 1 2 2 2 2 3 3 2 2 2 1 0 0 0 0 0 0 0 1 1 1 1
0 0 0 0 0 0 0 0 0 0 0 0 1 1 1 1 1 0 0 0 0 0 0 1 1 1 2 3 2 1 1 1 1 0 0 0 0 0 0 0 0 0 0 0
0 0 0 0 0 0 0 1 0 0 0 0 0 0 0 0 0 0 0 0 0 0 0 0 0 0 1 1 1 1 0 0 0 0 0 0 0 0 0 0 0 0 0 0
0 0 0 0 0 0 0 0 0 0 0 0 0 0 0 0 1 1 0 0 0 0 0 0 0 0 0 0 0 0 0 0 0 0 0 0 0 0 0 0 0 0 0 0
0 0 0 0 0 0 0 0 0 0 0 0 0 0 0 1 2 2 1 0 0 0 0 0 0 0 0 0 0 0 0 0 0 0 0 0 0 0 0 0 0 0 0 0
0 0 0 0 0 0 0 0 0 0 0 0 0 1 1 1 2 2 1 0 0 0 0 0 0 0 0 0 0 0 0 0 0 0 0 0 0 0 0 0 0 0 0 0
0 0 0 0 0 0 0 0 0 0 0 0 0 1 1 1 1 1 0 0 0 0 0 0 0 0 0 0 0 0 0 0 0 0 0 0 0 0 0 0 0 0 0 0
0 0 0 0 0 0 0 0 0 0 0 0 0 1 1 0 0 0 0 0 0 0 0 0 0 0 0 0 0 0 0 0 0 0 0 0 0 0 0 0 0 0 0 1
0 0 0 0 0 0 0 0 0 0 0 0 0 0 0 0 0 0 0 0 0 0 0 0 0 0 0 0 0 0 0 0 0 0 0 0 0 0 0 0 0 0 1 2
0 0 0 0 0 0 0 0 0 0 0 0 0 0 0 0 0 0 0 0 0 0 0 0 0 0 0 0 0 0 0 0 0 0 0 0 0 0 0 0 0 0 1 2
Wind_Speed
6 5 5 7 7 8 9 9 9 5 4 2 1 1 2 3 5 5 6 6 5 4 4 3 3 3 2 2 1 1 1 1 1 1 1 1 1 1 1 2 2 2 2 1
6 6 6 7 7 7 8 8 8 6 5 0 0 2 3 4 5 5 5 5 5 4 4 3 3 2 2 1 1 0 0 1 1 1 1 1 1 1 2 2 2 2 1 1
7 5 7 8 6 7 7 5 6 7 3 2 2 3 3 4 4 4 4 4 4 4 3 3 2 1 1 1 1 0 0 0 0 1 1 1 2 2 2 2 2 1 1 1
6 6 10 1 1 3 5 4 4 3 2 3 2 3 3 2 3 4 3 3 3 3 3 3 2 1 1 1 1 0 0 1 1 1 1 1 1 1 1 1 1 1 1 1
6 8 6 4 2 2 5 4 2 2 2 2 3 4 4 2 2 2 3 2 2 2 3 2 2 2 1 1 1 0 0 1 1 2 1 2 1 1 1 1 1 1 1 2
7 8 6 1 2 1 5 5 2 2 3 3 5 5 4 4 2 3 3 3 2 2 2 2 1 1 1 1 1 1 1 1 1 2 1 1 1 1 1 1 1 1 1 1
9 8 3 3 2 3 6 1 2 1 2 3 3 2 4 4 3 3 3 3 3 3 2 1 1 1 1 1 1 1 1 1 1 2 1 1 1 1 1 1 1 1 1 1
7 8 3 3 2 2 3 3 1 0 1 2 2 3 4 4 4 3 4 3 3 2 1 1 1 2 2 1 1 1 1 1 1 2 2 1 1 1 2 2 2 2 2 2
3 1 5 2 1 2 2 1 1 1 1 3 3 3 3 3 3 2 3 3 2 2 1 1 1 2 2 1 1 2 2 2 2 2 2 1 2 2 2 2 2 2 2 2
3 2 2 1 1 1 1 1 1 0 2 3 3 2 2 2 2 2 1 2 2 2 1 0 1 2 2 1 1 2 2 2 2 2 1 1 2 2 2 2 2 2 2 2
4 2 2 2 1 1 1 1 0 1 1 2 2 2 2 2 2 1 2 2 2 2 1 1 1 2 2 1 2 2 2 2 2 2 1 1 1 2 3 2 2 3 3 3
3 1 2 0 1 1 1 1 1 1 1 2 2 1 1 1 2 2 2 2 2 3 2 2 2 2 2 2 3 3 3 3 2 2 1 2 2 1 0 2 1 1 3 4
2 2 2 2 1 2 2 2 1 2 2 1 1 1 2 2 2 2 3 3 3 3 3 3 3 2 2 2 3 3 3 3 3 2 2 2 2 2 2 1 1 2 3 3
3 3 3 2 1 2 2 2 2 2 1 1 1 1 2 2 2 3 3 3 3 3 3 3 3 3 2 2 3 4 4 3 4 3 3 3 3 3 3 2 2 2 2 3
3 4 3 2 2 2 3 2 2 1 1 1 1 1 2 3 3 3 2 2 3 3 3 3 3 2 2 2 3 3 4 3 3 3 3 3 3 3 2 3 3 2 1 2
3 3 3 3 3 3 3 3 2 2 2 2 2 2 2 2 2 2 2 2 3 3 2 2 2 2 2 2 3 3 2 1 3 3 3 2 2 2 2 3 3 2 2 2
4 4 3 3 3 3 3 3 3 3 2 2 2 2 2 2 2 2 2 2 2 2 2 2 2 2 2 2 3 2 2 2 3 3 2 2 2 2 2 2 2 2 2 1
4 4 3 3 3 3 3 2 2 2 2 2 2 2 2 3 3 2 2 2 2 2 2 2 1 2 2 2 2 2 2 1 2 2 1 2 2 2 3 2 3 3 2 1
2 3 3 3 3 3 2 2 1 1 1 2 2 2 2 2 2 2 2 2 3 2 1 1 1 2 2 1 2 3 2 2 1 1 2 1 3 3 3 3 3 3 3 2
0 1 1 1 1 1 1 1 1 1 1 1 1 1 1 2 2 2 2 2 1 1 0 1 2 2 2 2 3 3 2 2 1 1 2 2 2 2 2 3 3 3 3 3
1 1 1 1 1 1 1 1 1 1 0 1 1 1 1 1 1 1 2 1 1 0 1 1 2 2 2 1 4 3 2 2 2 2 2 2 3 3 2 2 3 3 3 3
1 1 1 0 0 0 0 1 1 1 1 1 1 1 1 1 1 1 2 1 0 0 2 2 1 1 1 2 3 2 2 2 2 2 2 2 2 2 2 2 3 3 3 3
1 1 1 1 0 0 1 0 0 0 0 1 1 1 1 1 1 2 1 1 1 1 2 0 2 2 1 3 2 2 1 2 2 2 2 2 2 2 2 2 2 3 3 3
2 1 1 0 0 1 1 1 1 0 0 0 0 0 1 1 1 1 1 2 1 1 1 3 3 2 4 3 2 1 1 2 2 2 2 2 2 1 2 2 2 2 2 3
2 2 1 0 0 0 1 1 1 1 1 1 1 1 0 0 0 0 1 2 2 2 1 3 4 4 4 2 2 1 1 0 1 1 1 1 2 2 2 2 2 2 2 2
2 1 1 1 1 1 0 0 0 0 0 1 1 1 1 1 1 1 1 2 2 2 1 1 2 3 3 2 1 1 0 1 1 1 1 1 2 2 2 2 3 2 2 2
1 0 1 0 0 1 0 0 0 0 0 1 1 1 1 1 1 1 0 1 1 1 0 0 0 1 1 1 1 1 1 0 0 1 1 1 1 2 2 3 2 2 2 2
Wind_Direction
253 261 247 240 234 229 238 258 268 263 249 234 210 200 165 155 158 154 152 150 146 139 134 135 131 130 120 108 105 117 157 195 211 209 219 216 223 222 209 202 192 178 183 190
232 234 234 242 245 240 244 254 255 256 259 270 154 186 174 165 163 162 157 154 149 145 146 148 144 138 119 116 111 129 201 236 247 211 212 214 209 201 191 199 198 186 197 205
227 223 235 233 242 240 233 245 251 254 258 181 189 186 180 174 170 170 167 163 160 157 158 164 164 155 153 154 110 89 317 288 276 251 215 221 214 194 193 197 192 196 210 222
230 221 238 135 41 268 242 246 261 250 217 210 196 162 148 167 176 170 167 162 162 162 160 164 165 162 173 175 156 177 292 343 341 295 246 228 217 200 200 202 203 203 214 218
238 232 230 177 177 250 247 235 253 232 196 170 150 166 158 145 153 149 149 141 151 167 159 161 163 165 183 190 194 219 334 343 310 295 264 245 233 227 210 207 204 217 216 231
236 247 242 155 112 266 247 222 144 205 202 180 189 216 145 130 135 131 129 133 147 157 153 148 149 161 188 213 228 297 318 325 316 289 267 250 255 242 227 230 220 230 214 241
236 243 240 78 111 216 237 67 79 221 210 196 203 358 94 130 133 129 128 131 144 149 140 136 146 177 209 224 298 311 310 317 303 286 264 241 228 223 228 235 237 247 239 243
233 239 221 94 172 243 8 32 14 265 188 189 118 100 121 124 120 117 122 123 129 130 118 124 167 212 225 253 305 306 294 295 295 289 282 231 211 219 221 230 227 231 232 244
266 354 64 91 62 38 17 355 328 279 170 167 152 151 136 127 124 123 120 119 124 129 124 129 189 243 256 277 284 274 276 283 282 278 277 262 228 220 219 223 244 245 243 247
227 168 122 116 56 33 5 344 330 124 151 166 167 159 155 144 137 140 150 161 164 168 161 111 310 271 272 279 262 251 260 269 265 259 259 256 259 247 245 240 242 250 258 265
227 200 182 170 33 3 3 347 6 133 151 167 171 178 175 169 175 198 207 216 226 221 212 215 255 281 281 252 237 245 254 254 251 245 244 273 278 289 280 289 304 286 279 273
246 215 242 197 20 341 304 285 262 211 173 164 173 186 211 215 220 232 235 235 238 240 241 240 238 244 248 239 231 235 238 240 248 247 234 241 252 267 332 291 45 323 314 309
280 288 291 303 282 277 290 294 267 236 220 203 188 200 214 219 223 238 243 239 241 245 246 245 243 242 235 241 242 242 247 248 255 246 236 236 241 254 256 216 203 247 264 271
247 252 249 250 277 278 279 276 257 241 236 218 196 212 225 234 239 246 249 252 247 242 243 241 239 236 230 227 240 243 236 217 235 238 241 240 243 249 257 264 247 231 214 221
231 239 254 263 248 245 242 230 223 224 225 221 223 237 243 249 251 254 260 257 246 243 244 246 241 238 233 222 235 247 242 229 229 248 250 246 248 251 258 266 267 263 249 186
239 236 239 236 233 235 232 234 240 242 238 236 249 259 257 252 244 241 236 236 241 250 262 260 253 242 230 233 239 238 227 211 250 249 247 250 251 255 259 264 266 264 263 270
246 243 242 244 247 251 248 247 250 247 247 246 257 265 250 237 235 235 237 242 250 251 259 263 261 255 243 243 247 250 235 178 208 248 255 266 268 272 272 272 270 265 265 306
252 258 265 266 267 264 253 249 257 258 255 263 258 248 243 244 245 244 250 260 253 238 231 241 260 270 251 241 252 265 245 221 215 238 254 270 277 273 272 270 270 273 276 201
248 256 262 263 260 251 247 250 262 265 268 260 244 235 244 253 249 239 234 236 247 245 240 203 157 242 236 233 256 229 235 227 216 227 251 244 252 260 266 271 275 274 276 275
229 263 263 252 250 245 245 248 257 264 267 254 237 227 234 255 255 234 228 244 278 326 290 256 223 229 226 210 253 241 229 231 236 236 250 260 263 267 268 271 273 277 281 284
27 350 299 258 236 228 212 218 241 248 272 255 236 239 244 249 242 236 244 237 133 356 256 202 225 227 227 218 225 241 232 230 234 243 251 258 263 269 276 285 291 291 287 285
7 330 305 305 236 109 118 203 220 225 218 233 237 240 233 231 230 232 246 282 248 201 239 210 197 76 341 275 238 241 247 254 252 252 260 265 269 275 283 291 292 292 292 291
352 327 313 319 320 76 100 120 150 174 214 233 248 254 257 258 243 237 234 253 249 215 243 196 78 98 260 250 251 250 254 256 256 256 263 268 273 280 290 294 296 298 299 299
8 8 5 6 112 125 114 89 78 74 184 188 140 299 272 244 226 225 202 118 99 199 258 92 116 180 240 250 249 239 240 246 255 266 272 278 279 284 295 303 310 315 318 318
5 7 27 85 190 158 138 159 150 149 162 116 104 120 178 277 292 53 71 115 129 202 203 149 170 210 237 248 245 245 242 298 320 313 300 303 311 320 327 327 327 325 325 327
349 349 25 341 338 320 292 241 209 153 149 135 129 113 107 103 119 147 171 163 158 225 252 173 178 209 237 251 254 275 308 128 192 254 316 314 315 318 319 322 325 324 321 324
283 201 218 268 338 348 352 51 97 111 117 159 127 105 103 97 92 96 113 154 165 198 209 290 245 242 256 260 253 251 261 205 181 298 289 282 285 290 303 308 315 316 315 322